Regional Weather Roundup
Issued by NWS

Home | Current Version | Previous Version | Graphics & Text | Print | Product List | Glossary On
Versions: 1 2 3 4 5 6 7 8 9 10 11 12 13 14 15 16 17 18 19 20 21 22 23 24 25 26 27 28 29 30 31 32 33 34 35 36 37 38 39 40 41 42 43 44 45 46 47 48 49 50
000
ASUS43 KOAX 170810
RWRNE

WEATHER ROUNDUP FOR NEBRASKA
NATIONAL WEATHER SERVICE OMAHA NE
200 AM CST TUE JAN 17 2017

NOTES: SATELLITE DATA IS BEING USED TO AUGMENT CLOUD COVER ABOVE
       12000 FEET.
       "FAIR" INDICATES FEW OR NO CLOUDS BELOW 12,000 FEET WITH NO
       SIGNIFICANT WEATHER AND/OR OBSTRUCTIONS TO VISIBILITY.

  * THESE STATIONS DO NOT REPORT WEATHER SUCH AS RAIN...SNOW OR FOG.

NEZ001>004-019>022-054>056-170900-
NEBRASKA PANHANDLE

CITY           SKY/WX    TMP DP  RH WIND       PRES   REMARKS
SCOTTSBLUFF    CLEAR     19  13  77 NW8       30.07F WCI   9
ALLIANCE       CLEAR     16  11  80 W6        30.04F WCI   7
CHADRON        CLEAR     14   8  77 W5        30.07F WCI   6
KIMBALL        CLOUDY    16  13  87 W7        30.06F WCI   6
SIDNEY         CLOUDY    22  13  68 W12       30.07S WCI  10
$$

NEZ057>060-069>072-079>082-170900-
SOUTHWEST NEBRASKA

CITY           SKY/WX    TMP DP  RH WIND       PRES   REMARKS
NORTH PLATTE   CLOUDY    22  18  85 NW5       30.07R WCI  16
IMPERIAL       CLEAR     27  21  78 NW8       30.08S WCI  19
LEXINGTON      CLOUDY    26  22  82 W8        30.06R WCI  18
MCCOOK         CLEAR     28  23  81 W9        30.08R WCI  19
OGALLALA       CLOUDY    24  20  86 CALM      30.07S
$$

NEZ005>010-023>029-035>040-094-170900-
NORTH CENTRAL NEBRASKA

CITY           SKY/WX    TMP DP  RH WIND       PRES   REMARKS
VALENTINE      CLEAR     14  10  84 W6        30.05F WCI   5
AINSWORTH      CLOUDY    19  16  90 W9        30.02F WCI   7
BROKEN BOW     CLOUDY    25  18  74 NW16      30.03F WCI  12
O`NEILL        CLOUDY    20  17  86 NW12      30.02F WCI   8
ORD            CLOUDY    21  16  81 NW7       30.04R WCI  12
THEDFORD       CLOUDY    23  18  80 W3        30.04S
$$

NEZ041-046>049-061>064-073>077-083>087-170900-
SOUTH CENTRAL NEBRASKA

CITY           SKY/WX    TMP DP  RH WIND       PRES   REMARKS
GRAND ISLAND   CLEAR     25  23  92 NW7         N/A  WCI  17
AURORA         MOCLDY    27  24  87 NW3       30.03R
HASTINGS       CLEAR     28  23  81 NW13      30.05R WCI  17
HEBRON         CLOUDY    32  28  86 NW3       30.04R
HOLDREGE       CLOUDY    28  23  81 NW3       30.05R
KEARNEY *      CLEAR     27  19  74 CALM      30.05R
YORK           CLOUDY    28  25  86 CALM      30.03R
$$

NEZ011>018-030>034-042>045-170900-
NORTHEAST NEBRASKA

CITY           SKY/WX    TMP DP  RH WIND       PRES   REMARKS
NORFOLK        CLOUDY    20  15  81 NW12      30.01R WCI   8
ALBION         CLOUDY    21  17  83 NW6       30.02R FOG     WCI  14
BLAIR          CLOUDY    31  30  96 NW6       29.97R FOG     WCI  25
FREMONT        CLOUDY    30  29  95 W14       30.00S WCI  19
TEKAMAH        CLOUDY    30  27  88 NW14      29.99R WCI  19
WAYNE          MOCLDY    21  17  84 NW5       30.00S WCI  14
$$

NEZ050>053-065>068-078-088>093-170900-
SOUTHEAST NEBRASKA

CITY           SKY/WX    TMP DP  RH WIND       PRES   REMARKS
LINCOLN        CLOUDY    32  29  88 NW13      30.03R WCI  22
OMAHA EPPLEY   CLOUDY    33  28  81 NW16      29.99R HAZE    WCI  23
BEATRICE       CLOUDY    33  32  95 NW6       30.01R WCI  27
FALLS CITY     CLOUDY    33  32  96 W10       29.99R WCI  25
NEBRASKA CITY  CLOUDY    32  32 100 NW9       29.97S FOG     WCI  24
PLATTSMOUTH    CLOUDY    32  30  92 NW15      29.96S FOG     WCI  22
$$

NEZ044-045-051>053-067-170900-
OMAHA AREA

CITY           SKY/WX    TMP DP  RH WIND       PRES   REMARKS
OMAHA EPPLEY   CLOUDY    33  28  81 NW16      29.99R HAZE    WCI  23
BLAIR          CLOUDY    31  30  96 NW6       29.97R FOG     WCI  25
FREMONT        CLOUDY    30  29  95 W14       30.00S WCI  19
MILLARD        CLOUDY    34  32  92 NW9G21    29.98S WCI  26
OFFUTT AFB     CLOUDY    32  32 100 NW9       29.97R WCI  24
PLATTSMOUTH    CLOUDY    32  30  92 NW15      29.96S FOG     WCI  22
WAHOO          CLOUDY    31  28  89 NW13G21   29.99S WCI  21
$$




USA.gov is the U.S. government's official web portal to all federal, state and local government web resources and services.